User: anonymous   Login
Location: Buttermere
(51.3333°N, 1.5167°W)
Time: 22:55:20
(UTC+00:00)
Language:

Cosmos 1674 - Orbit

View from above orbital plane
View from above orbital plane
View from above satellite
View from above satellite

Ground track
Ground track

The orbit data is extracted from the following two-line orbital elements,

1 15944U 85069A   21210.42342191  .00001094  00000-0  48477-4 0  9991
2 15944  82.5076 177.8841 0015008 296.4566  63.5129 15.20479376966002
Epoch (UTC): 29 July 2021 10:09:43
Eccentricity: 0.0015008
inclination: 82.5076°
perigee height: 494 km
apogee height: 515 km
right ascension of ascending node: 177.8841°
argument of perigee: 296.4566°
revolutions per day: 15.20479376
mean anomaly at epoch: 63.5129°
orbit number at epoch: 96600

The dashed part of the orbit path shows where the satellite is in the earth's shadow,  

DLR